GW4457 Weather Reports


Display with metric or nautical units.
time (UTC)temp
F
wind
direction
speed
MPH
gust
MPH
rain 1hr
in
rain 24hr
in
rain mn
in
humidity
%
barometer
mb
20260505195452 84 101 9.0 16.0 0.00 0.00 0.00 73 1020.5
20260505194949 84 112 15.0 19.0 0.00 0.00 0.00 74 1020.3
20260505194446 84 82 11.0 17.0 0.00 0.00 0.00 73 1020.6
20260505193946 84 128 17.0 22.0 0.00 0.00 0.00 72 1020.6
20260505193443 84 113 10.0 16.0 0.00 0.00 0.00 72 1020.5
20260505192941 84 160 12.0 16.0 0.00 0.00 0.00 72 1020.5
20260505192439 84 181 11.0 16.0 0.00 0.00 0.00 71 1020.5
20260505191936 84 107 10.0 21.0 0.00 0.00 0.00 70 1020.7
20260505191435 84 113 11.0 19.0 0.00 0.00 0.00 71 1020.7
20260505190926 85 93 13.0 19.0 0.00 0.00 0.00 71 1020.7
20260505190421 85 157 9.0 17.0 0.00 0.00 0.00 69 1020.8
20260505185917 85 91 12.0 17.0 0.00 0.00 0.00 68 1020.7
20260505185415 85 165 12.0 19.0 0.00 0.00 0.00 70 1020.7
20260505184910 85 119 11.0 15.0 0.00 0.00 0.00 72 1020.8
20260505184407 84 83 11.0 19.0 0.00 0.00 0.00 72 1020.7
20260505183905 85 51 13.0 25.0 0.00 0.00 0.00 71 1020.8
20260505183401 85 144 14.0 15.0 0.00 0.00 0.00 70 1020.8
20260505182858 86 88 16.0 21.0 0.00 0.00 0.00 68 1020.8
20260505182355 86 57 6.0 13.0 0.00 0.00 0.00 70 1020.8
20260505181851 85 113 14.0 22.0 0.00 0.00 0.00 68 1021.2
20260505181348 86 89 19.0 22.0 0.00 0.00 0.00 67 1021.2
20260505180845 85 117 13.0 22.0 0.00 0.00 0.00 69 1021.2
20260505180341 86 97 14.0 21.0 0.00 0.00 0.00 68 1021.4
20260505175838 86 153 8.0 16.0 0.00 0.00 0.00 69 1021.3
20260505175334 86 149 13.0 19.0 0.00 0.00 0.00 70 1021.2
20260505174831 86 90 13.0 18.0 0.00 0.00 0.00 69 1021.4
20260505174328 85 134 9.0 18.0 0.00 0.00 0.00 72 1021.6
20260505173825 85 142 8.0 21.0 0.00 0.00 0.00 71 1021.6
20260505173321 86 124 14.0 19.0 0.00 0.00 0.00 71 1021.6
20260505172819 85 100 9.0 16.0 0.00 0.00 0.00 72 1021.5
20260505172316 86 111 10.0 14.0 0.00 0.00 0.00 72 1021.8
20260505171815 86 114 15.0 19.0 0.00 0.00 0.00 70 1022.0
20260505171312 86 72 15.0 19.0 0.00 0.00 0.00 69 1021.7
20260505170808 87 93 9.0 18.0 0.00 0.00 0.00 68 1021.8
20260505170306 87 126 15.0 25.0 0.00 0.00 0.00 67 1021.8
20260505165801 86 104 10.0 19.0 0.00 0.00 0.00 70 1021.8
20260505165257 87 106 10.0 18.0 0.00 0.00 0.00 70 1022.0
20260505164753 86 118 12.0 19.0 0.00 0.00 0.00 68 1022.1
20260505164250 86 153 13.0 21.0 0.00 0.00 0.00 70 1022.0
20260505163748 87 139 13.0 19.0 0.00 0.00 0.00 69 1022.0
20260505163247 86 122 15.0 22.0 0.00 0.00 0.00 70 1022.0
20260505162743 85 187 12.0 17.0 0.00 0.00 0.00 71 1021.9
20260505162240 86 90 14.0 18.0 0.00 0.00 0.00 70 1021.9
20260505161737 86 123 10.0 18.0 0.00 0.00 0.00 69 1022.0
20260505161235 86 108 11.0 22.0 0.00 0.00 0.00 70 1022.0
20260505160732 86 103 14.0 22.0 0.00 0.00 0.00 69 1021.9
20260505160230 86 123 13.0 21.0 0.00 0.00 0.00 70 1022.0
20260505153209 86 185 12.0 27.0 0.00 0.00 0.00 71 1021.5
20260505152706 86 89 14.0 23.0 0.00 0.00 0.00 69 1021.7
20260505152202 87 119 17.0 19.0 0.00 0.00 0.00 68 1021.7
20260505151657 86 137 14.0 19.0 0.00 0.00 0.00 70 1021.6
20260505151155 85 103 11.0 21.0 0.00 0.00 0.00 72 1022.0
20260505150650 86 187 14.0 25.0 0.00 0.00 0.00 70 1021.9
20260505150148 86 141 13.0 22.0 0.00 0.00 0.00 71 1021.7
20260505140616 85 88 11.0 22.0 0.00 0.00 0.00 73 1021.7
20260505140113 84 174 10.0 19.0 0.00 0.00 0.00 75 1021.6
20260505125030 84 104 16.0 19.0 0.00 0.00 0.00 73 1021.1
20260505124526 82 168 15.0 21.0 0.00 0.00 0.00 78 1021.0
20260505124023 82 119 12.0 23.0 0.00 0.00 0.00 76 1021.2
20260505123519 83 116 11.0 18.0 0.00 0.00 0.00 75 1021.2
20260505123015 84 95 15.0 18.0 0.00 0.00 0.00 74 1021.1
20260505122513 81 94 10.0 17.0 0.00 0.00 0.00 80 1021.0
20260505122009 80 114 9.0 14.0 0.00 0.00 0.00 80 1021.1
20260505121506 80 163 6.0 13.0 0.00 0.00 0.00 79 1021.2
20260505121002 82 125 10.0 19.0 0.00 0.00 0.00 77 1021.0
20260505120459 81 95 9.0 15.0 0.00 0.00 0.00 77 1021.0
20260505115958 81 126 10.0 16.0 0.00 0.00 0.00 77 1020.8
20260505115454 82 133 8.0 17.0 0.00 0.00 0.00 77 1020.9
20260505114953 81 110 9.0 14.0 0.00 0.00 0.00 78 1020.8
20260505114448 79 141 8.0 14.0 0.00 0.00 0.00 81 1020.8
20260505113945 80 143 11.0 15.0 0.00 0.00 0.00 79 1020.6
20260505113441 79 46 5.0 18.0 0.00 0.00 0.00 80 1020.4
20260505112937 80 107 11.0 15.0 0.00 0.00 0.00 78 1020.5
20260505112435 80 134 9.0 15.0 0.00 0.00 0.00 79 1020.5
20260505111931 79 72 13.0 16.0 0.00 0.00 0.00 81 1020.6
20260505111426 79 82 11.0 15.0 0.00 0.00 0.00 81 1020.7
20260505110923 79 88 12.0 15.0 0.00 0.00 0.00 82 1020.6
20260505110419 78 112 7.0 10.0 0.00 0.00 0.00 83 1020.3
20260505101850 76 85 11.0 15.0 0.00 0.00 0.00 87 1019.9
20260505101345 76 85 6.0 14.0 0.00 0.00 0.00 87 1019.9
20260505100841 76 75 9.0 14.0 0.00 0.00 0.00 87 1019.9
20260505100338 76 87 6.0 10.0 0.00 0.00 0.00 87 1019.8
20260505095833 76 69 7.0 13.0 0.00 0.00 0.00 87 1019.8
20260505095331 76 97 5.0 14.0 0.00 0.00 0.00 87 1019.8
20260505094827 76 75 6.0 15.0 0.00 0.00 0.00 86 1019.6
20260505094324 76 93 6.0 14.0 0.00 0.00 0.00 87 1019.7
20260505093819 76 107 6.0 13.0 0.00 0.00 0.00 86 1019.6
20260505093318 76 95 11.0 16.0 0.00 0.00 0.00 86 1019.5
20260505092814 76 77 5.0 14.0 0.00 0.00 0.00 86 1019.6
20260505092313 76 91 6.0 11.0 0.00 0.00 0.00 86 1019.6
20260505091810 76 52 5.0 11.0 0.00 0.00 0.00 86 1019.5
20260505091308 76 67 11.0 13.0 0.00 0.00 0.00 86 1019.5
20260505090805 76 90 9.0 13.0 0.00 0.00 0.00 86 1019.4
20260505090303 76 73 7.0 17.0 0.00 0.00 0.00 86 1019.6
20260505085800 76 85 9.0 10.0 0.00 0.00 0.00 85 1019.4
20260505085258 76 97 10.0 16.0 0.00 0.00 0.00 86 1019.4
20260505084750 76 51 9.0 15.0 0.00 0.00 0.00 86 1019.3
20260505084249 76 54 6.0 16.0 0.00 0.00 0.00 86 1019.6
20260505083745 76 71 10.0 15.0 0.00 0.00 0.00 85 1019.3
20260505083242 76 77 11.0 15.0 0.00 0.00 0.00 85 1019.4
20260505082739 76 88 12.0 16.0 0.00 0.00 0.00 85 1019.3
20260505082236 76 102 8.0 13.0 0.00 0.00 0.00 85 1019.1
20260505081732 76 74 9.0 11.0 0.00 0.00 0.00 85 1019.3
20260505081229 76 73 12.0 14.0 0.00 0.00 0.00 86 1019.3
20260505080726 76 84 6.0 14.0 0.00 0.00 0.00 85 1019.5
20260505080221 76 74 10.0 13.0 0.00 0.00 0.00 85 1019.5
20260505075717 76 96 11.0 13.0 0.00 0.00 0.00 86 1019.5
20260505075214 76 58 3.0 8.0 0.00 0.00 0.00 86 1019.5
20260505074712 76 170 5.0 10.0 0.00 0.00 0.00 86 1019.6
20260505074209 76 82 7.0 10.0 0.00 0.00 0.00 86 1019.6
20260505073706 76 66 6.0 10.0 0.00 0.00 0.00 86 1019.6
20260505073204 76 96 9.0 11.0 0.00 0.00 0.00 86 1019.5
20260505072700 76 76 5.0 7.0 0.00 0.00 0.00 86 1019.5
20260505072156 76 95 6.0 9.0 0.00 0.00 0.00 86 1019.3
20260505071651 76 77 9.0 9.0 0.00 0.00 0.00 86 1019.3
20260505071149 76 75 7.0 10.0 0.00 0.00 0.00 86 1019.5
20260505070647 76 75 6.0 10.0 0.00 0.00 0.00 86 1019.4
20260505070143 76 152 6.0 10.0 0.00 0.00 0.00 85 1019.4
20260505065639 76 76 9.0 10.0 0.00 0.00 0.00 85 1019.5
20260505065135 76 47 4.0 10.0 0.00 0.00 0.00 85 1019.5
20260505064632 76 113 7.0 10.0 0.00 0.00 0.00 85 1019.3
20260505064131 76 37 8.0 10.0 0.00 0.00 0.00 85 1019.5
20260505063628 76 53 3.0 10.0 0.00 0.00 0.00 84 1019.7
20260505063124 76 175 6.0 11.0 0.00 0.00 0.00 84 1019.4
20260505062620 76 63 7.0 10.0 0.00 0.00 0.00 84 1019.6
20260505062118 76 158 2.0 11.0 0.00 0.00 0.00 84 1019.5
20260505061615 76 85 8.0 10.0 0.00 0.00 0.00 84 1019.5
20260505061113 76 89 6.0 8.0 0.00 0.00 0.00 84 1019.6
20260505060610 76 93 7.0 9.0 0.00 0.00 0.00 83 1019.7
20260505060107 76 154 5.0 11.0 0.00 0.00 0.00 83 1019.9
20260505055602 76 50 6.0 10.0 0.00 0.00 0.00 84 1020.0
20260505055059 76 128 3.0 8.0 0.00 0.00 0.00 83 1019.7
20260505054556 76 115 5.0 10.0 0.00 0.00 0.00 83 1020.0
20260505054055 76 141 9.0 11.0 0.00 0.00 0.00 83 1019.7
20260505053551 76 135 8.0 11.0 0.00 0.00 0.00 82 1020.0
20260505053048 77 105 7.0 14.0 0.00 0.00 0.00 82 1020.1
20260505052544 77 154 5.0 9.0 0.00 0.00 0.00 81 1020.1
20260505052042 77 33 3.0 9.0 0.00 0.00 0.00 81 1020.2
20260505051539 77 107 6.0 8.0 0.00 0.00 0.00 81 1020.3
20260505051037 77 81 7.0 9.0 0.00 0.00 0.00 82 1020.4
20260505050535 77 92 6.0 10.0 0.00 0.00 0.00 83 1020.5
20260505041503 77 91 6.0 9.0 0.00 0.00 0.00 82 1020.8
20260505041001 77 87 4.0 10.0 0.00 0.00 0.00 82 1020.9
20260505040458 77 66 7.0 11.0 0.00 0.00 0.00 83 1020.9
20260505035954 77 103 7.0 10.0 0.00 0.00 0.00 83 1020.9
20260505035450 77 92 8.0 14.0 0.00 0.00 0.00 83 1021.1
20260505034948 77 64 7.0 10.0 0.00 0.00 0.00 84 1021.2
20260505034444 77 86 5.0 8.0 0.00 0.00 0.00 84 1021.4
20260505033941 77 67 8.0 10.0 0.00 0.00 0.00 84 1021.2
20260505033437 77 72 6.0 10.0 0.00 0.00 0.00 84 1021.3
20260505032936 77 92 7.0 13.0 0.00 0.00 0.00 84 1021.2
20260505032433 77 69 8.0 13.0 0.00 0.00 0.00 84 1021.4
20260505031929 77 68 6.0 9.0 0.00 0.00 0.00 84 1021.2
20260505031426 77 95 7.0 9.0 0.00 0.00 0.00 84 1021.4
20260505030923 77 42 6.0 8.0 0.00 0.00 0.00 84 1021.3
20260505030419 77 201 5.0 14.0 0.00 0.00 0.00 84 1021.5
20260505025914 78 84 9.0 10.0 0.00 0.00 0.00 84 1021.4
20260505025412 77 151 8.0 11.0 0.00 0.00 0.00 84 1021.6
20260505024911 78 63 7.0 10.0 0.00 0.00 0.00 84 1021.4
20260505024408 78 67 5.0 10.0 0.00 0.00 0.00 84 1021.3
20260505023905 77 81 9.0 10.0 0.00 0.00 0.00 84 1021.5
20260505023402 77 301 3.0 9.0 0.00 0.00 0.00 84 1021.3
20260505022859 77 75 5.0 8.0 0.00 0.00 0.00 84 1021.3
20260505022356 77 59 7.0 10.0 0.00 0.00 0.00 83 1021.3
20260505021853 78 73 6.0 9.0 0.00 0.00 0.00 83 1021.2
20260505021349 77 49 4.0 8.0 0.00 0.00 0.00 83 1021.2
20260505020845 78 46 6.0 10.0 0.00 0.00 0.00 83 1021.2
20260505020341 78 67 8.0 9.0 0.00 0.00 0.00 83 1021.1
20260505015838 77 70 4.0 11.0 0.00 0.00 0.00 84 1020.9
20260505015335 77 70 8.0 10.0 0.00 0.00 0.00 84 1021.0
20260505014833 77 93 7.0 10.0 0.00 0.00 0.00 84 1021.0
20260505014330 77 65 6.0 7.0 0.00 0.00 0.00 85 1021.1
20260505013826 77 71 7.0 9.0 0.00 0.00 0.00 85 1021.0
20260505013323 77 105 6.0 8.0 0.00 0.00 0.00 86 1021.0
20260505012822 77 55 5.0 7.0 0.00 0.00 0.00 85 1020.8
20260505012319 77 147 4.0 9.0 0.00 0.00 0.00 85 1020.5
20260505011815 77 71 4.0 8.0 0.00 0.00 0.00 85 1020.8
20260505011312 77 99 4.0 7.0 0.00 0.00 0.00 85 1020.6
20260505010808 77 79 6.0 8.0 0.00 0.00 0.00 85 1020.5
20260505010304 77 205 0.0 3.0 0.00 0.00 0.00 85 1020.5
20260505005800 77 87 4.0 8.0 0.00 0.00 0.00 85 1020.6
20260505005257 77 113 4.0 10.0 0.00 0.00 0.00 85 1020.4
20260505004755 77 56 5.0 8.0 0.00 0.00 0.00 85 1020.2
20260505004250 78 141 7.0 11.0 0.00 0.00 0.00 85 1020.2
20260505003748 78 62 3.0 8.0 0.00 0.00 0.00 85 1020.3
20260505003246 78 72 6.0 9.0 0.00 0.00 0.00 84 1020.3
20260505002742 78 47 5.0 8.0 0.00 0.00 0.00 84 1020.2
20260505002239 78 97 6.0 8.0 0.00 0.00 0.00 84 1020.3
20260505001737 78 66 6.0 9.0 0.00 0.00 0.00 84 1020.2
20260505001234 78 106 3.0 10.0 0.00 0.00 0.00 83 1020.2
20260505000731 78 54 7.0 9.0 0.00 0.00 0.00 83 1020.2
20260505000229 78 69 4.0 8.0 0.00 0.00 0.00 82 1020.1
20260504235725 78 77 4.0 7.0 0.00 0.00 0.00 82 1020.1
20260504235221 78 115 4.0 10.0 0.00 0.00 0.00 82 1020.0
20260504234719 78 126 8.0 10.0 0.00 0.00 0.00 81 1020.1
20260504234216 78 113 3.0 6.0 0.00 0.00 0.00 81 1020.0
20260504233712 78 92 4.0 6.0 0.00 0.00 0.00 81 1019.9
20260504233208 78 75 6.0 7.0 0.00 0.00 0.00 81 1019.9
20260504232705 78 104 6.0 10.0 0.00 0.00 0.00 82 1019.8
20260504232202 78 223 4.0 9.0 0.00 0.00 0.00 82 1020.0
20260504231659 78 109 3.0 6.0 0.00 0.00 0.00 82 1019.8
20260504231155 78 234 4.0 7.0 0.00 0.00 0.00 82 1019.7
20260504230651 78 186 3.0 7.0 0.00 0.00 0.00 83 1020.1
20260504230150 78 65 5.0 8.0 0.00 0.00 0.00 83 1019.8
20260504225648 78 115 6.0 11.0 0.00 0.00 0.00 83 1019.8
20260504225144 79 130 3.0 4.0 0.00 0.00 0.00 82 1019.8
20260504224641 79 265 3.0 7.0 0.00 0.00 0.00 82 1019.8
20260504224137 79 49 5.0 10.0 0.00 0.00 0.00 82 1019.8
20260504223635 79 77 6.0 7.0 0.00 0.00 0.00 81 1019.7
20260504223131 79 100 4.0 7.0 0.00 0.00 0.00 81 1019.7
20260504222628 80 83 5.0 8.0 0.00 0.00 0.00 81 1019.6
20260504222125 80 129 5.0 10.0 0.00 0.00 0.00 80 1019.5
20260504221622 80 81 6.0 11.0 0.00 0.00 0.00 80 1019.5
20260504221119 80 69 5.0 8.0 0.00 0.00 0.00 80 1019.3
20260504220615 80 189 4.0 10.0 0.00 0.00 0.00 79 1019.5
20260504220113 80 129 10.0 13.0 0.00 0.00 0.00 79 1019.4
20260504215609 80 94 7.0 10.0 0.00 0.00 0.00 80 1019.3
20260504215107 80 125 6.0 13.0 0.00 0.00 0.00 80 1019.2
20260504214602 80 104 8.0 11.0 0.00 0.00 0.00 79 1019.0
20260504214059 81 96 8.0 13.0 0.00 0.00 0.00 78 1019.0
20260504213555 81 105 9.0 10.0 0.00 0.00 0.00 77 1019.0
20260504213052 81 104 7.0 13.0 0.00 0.00 0.00 76 1019.0
20260504212548 81 97 9.0 13.0 0.00 0.00 0.00 76 1019.0
20260504212046 81 161 7.0 10.0 0.00 0.00 0.00 76 1019.2
20260504211542 81 88 11.0 13.0 0.00 0.00 0.00 75 1019.1
20260504211039 81 121 10.0 11.0 0.00 0.00 0.00 75 1019.0
20260504210536 81 129 7.0 13.0 0.00 0.00 0.00 76 1019.0
20260504210033 81 125 8.0 14.0 0.00 0.00 0.00 75 1019.2
20260504205531 82 114 12.0 16.0 0.00 0.00 0.00 75 1019.1
20260504205029 81 159 7.0 14.0 0.00 0.00 0.00 76 1019.0
20260504204527 82 107 9.0 16.0 0.00 0.00 0.00 75 1018.9
20260504204026 82 85 4.0 15.0 0.00 0.00 0.00 75 1018.8
20260504203523 82 51 7.0 11.0 0.00 0.00 0.00 75 1019.1
20260504203020 82 145 13.0 16.0 0.00 0.00 0.00 74 1018.9
20260504202516 82 152 5.0 10.0 0.00 0.00 0.00 74 1019.1
20260504202013 82 132 9.0 15.0 0.00 0.00 0.00 74 1019.0
20260504201510 82 218 11.0 16.0 0.00 0.00 0.00 73 1019.2
20260504201008 83 79 7.0 15.0 0.00 0.00 0.00 72 1019.3
20260504200504 83 98 11.0 19.0 0.00 0.00 0.00 72 1019.1
20260504200000 83 73 13.0 16.0 0.00 0.00 0.00 72 1018.9